Orbital Elements at Epoch 2459200.5 (2020-Dec-17.0) TDB
Reference: JPL 33 (heliocentric ecliptic J2000)
Element | Value | Uncertainty (1-sigma) | Units |
e | .155528498665367 | 3.6226e-08 | |
a | 2.775215275451368 | 1.047e-08 | au |
q | 2.343590210187224 | 1.0088e-07 | au |
i | 9.02970090076548 | 4.2373e-06 | deg |
node | 182.060520080494 | 2.0355e-05 | deg |
peri | 230.1539580698059 | 2.3717e-05 | deg |
M | 354.6138393152671 | 1.0869e-05 | deg |
tp | 2459225.765054975762 (2021-Jan-11.26505498) | 5.0969e-05 | TDB |
period | 1688.664769518585 4.62 | 9.5561e-06 2.616e-08 | d yr |
n | .2131861850251256 | 1.2064e-09 | deg/d |
Q | 3.206840340715512 | 1.2098e-08 | au |
|
| | Orbit Determination Parameters
Additional Information
|